Regional Weather Roundup
Issued by NWS

Home | Current Version | Previous Version | Graphics & Text | Print | Product List | Glossary On
Versions: 1 2 3 4 5 6 7 8 9 10 11 12 13 14 15 16 17 18 19 20 21 22 23 24 25 26 27 28 29 30 31 32 33 34 35 36 37 38 39 40 41 42 43 44 45 46 47 48 49 50
000
ASUS43 KIND 251259
RWRIN

WEATHER ROUNDUP FOR INDIANA
NATIONAL WEATHER SERVICE INDIANAPOLIS IN
900 AM EDT SUN JUN 25 2017

NOTE: "FAIR" INDICATES FEW OR NO CLOUDS BELOW 12,000 FEET WITH NO
SIGNIFICANT WEATHER AND/OR OBSTRUCTIONS TO VISIBILITY.

* - STATION DOES NOT REPORT WEATHER SUCH AS PRECIPITATION OR FOG.

+ - STATION NOT QUALITY CONTROLLED BY THE NATIONAL WEATHER SERVICE.
    USE DATA WITH CAUTION...ESPECIALLY DEWPOINT AND RELATIVE
    HUMIDITY OBSERVATIONS.

INZ001>003-010>013-019-020-251400-
NORTHWEST INDIANA

CITY           SKY/WX    TMP DP  RH WIND       PRES   REMARKS
GARY /AIRPORT/ SUNNY     63  46  55 W9G21     30.11R
KNOX *+        SUNNY     61  37  41 W12G17    30.10R
MICHIGAN CITY+ SUNNY     61  48  63 W9G21     30.10R
MONTICELLO +   SUNNY     61  47  60 W10       30.13R

$$

LMZ046-743>745-251400-
SOUTHERN LAKE MICHIGAN

STATION/POSITION TIME  TEMP    WIND        PRES    WAVE
                       AIR SEA DIR/SP/G            HT
                 (UTC) (F)     (DEG/KT/KT) (MB)    (FT)
BURNS HARBOR     1240   61     260/ 15/ 18 1019.6R
MICHIGAN CITY    1230   60     250/ 19/ 23   N/A
5NW MICH CITY    1250   61 66  270/ 17/ 19   N/A     4

$$

INZ004-005-014>016-021>024-251400-
NORTH CENTRAL INDIANA

CITY           SKY/WX    TMP DP  RH WIND       PRES   REMARKS
ELKHART        SUNNY    N/A N/A N/A W12       30.06R
GOSHEN         SUNNY     61  47  59 W16       30.08R
SOUTH BEND     SUNNY     61  49  64 W15       30.09R

$$

INZ006>009-017-018-025>027-251400-
NORTHEAST INDIANA

CITY           SKY/WX    TMP DP  RH WIND       PRES   REMARKS
FORT WAYNE     SUNNY     62  49  62 W15       30.09R
KENDALLVILLE + SUNNY     60  49  66 W10G18    30.08R

$$

INZ028-029-035-036-043>045-051>053-251400-
WEST CENTRAL INDIANA

CITY           SKY/WX    TMP DP  RH WIND       PRES   REMARKS
LAFAYETTE      SUNNY     61  52  72 W8        30.14R
TERRE HAUTE    SUNNY     65  49  56 W8        30.16S

$$

INZ030>032-037>040-046>048-054>057-064-065-251400-
CENTRAL INDIANA

CITY           SKY/WX    TMP DP  RH WIND       PRES   REMARKS
COLUMBUS       MOSUNNY   59  48  67 W10       30.16R
GREENWOOD *+   MOSUNNY   64  47  54 W12       30.16S
INDIANAPOLIS   MOSUNNY   65  50  58 W12       30.15R
-EAGLE CREEK   SUNNY     64  49  57 W14       30.14R
KOKOMO +       MOSUNNY   61  49  64 W13       30.13R
MT COMFORT *+  SUNNY     63  48  59 W10       30.14S
SHELBYVILLE    SUNNY     65  49  56 W9        30.15R

$$

INZ033-034-041-042-049-050-058-059-251400-
EAST CENTRAL INDIANA

CITY           SKY/WX    TMP DP  RH WIND       PRES   REMARKS
MUNCIE         SUNNY     65  48  54 W13       30.12R
RICHMOND +     SUNNY     61  50  67 W12       30.14S

$$

INZ060-061-067>069-081>083-085>088-251400-
SOUTHWEST INDIANA

CITY           SKY/WX    TMP DP  RH WIND       PRES   REMARKS
EVANSVILLE     SUNNY     67  54  63 SW6       30.20R
HUNTINGBURG *+ SUNNY     64  58  80 S6        30.20R

$$

INZ062-063-066-070>080-084-089>092-251400-
SOUTH CENTRAL AND SOUTHEAST INDIANA

CITY           SKY/WX    TMP DP  RH WIND       PRES   REMARKS
BLOOMINGTON    SUNNY     65  49  56 W9        30.17R
MADISON *+     SUNNY     64  50  59 SW5       30.20S
SEYMOUR +      MOSUNNY   68  54  60 W8        30.17R

$$





USA.gov is the U.S. government's official web portal to all federal, state and local government web resources and services.